Location: Unspecified
(0.0000°N, 0.0000°E)
Time: 17:11:26
(UTC+00:00)

Vanguard 2 Rocket - Pass Details

Date: 22 December 2018
Orbit: 554 x 3326 km, 32.9° (Epoch: 17 June)

Event Time Altitude Azimuth Distance (km) Brightness Sun altitude
Rises 01:54:53 0° 256° (WSW) 5,981 - -53.3°
Reaches altitude 10° 02:00:19 10° 267° (W) 4,442 - -52.2°
Maximum altitude 02:09:01 26° 317° (NW) 2,473 - -50.6°
Drops below altitude 10° 02:14:44 10° 13° (NNE) 2,817 - -49.4°
Sets 02:17:21 0° 27° (NNE) 3,474 - -48.9°
